| time (UTC) | temp F | wind direction | speed MPH | gust MPH | rain 1hr in | rain 24hr in | rain mn in | humidity % | barometer mb |
| 20260831151511 | 86 | 224 | 2.0 | 4.0 | 0.00 | 0.00 | 0.00 | 76 | 1017.4 |
| 20260831150021 | 87 | 218 | 2.0 | 4.0 | 0.00 | 0.00 | 0.00 | 76 | 1017.4 |
| 20260831144524 | 86 | 188 | 4.0 | 6.0 | 0.00 | 0.00 | 0.00 | 78 | 1017.4 |
| 20260831143028 | 85 | 159 | 1.0 | 5.0 | 0.00 | 0.00 | 0.00 | 80 | 1017.4 |
| 20260831141535 | 84 | 127 | 1.0 | 3.0 | 0.00 | 0.00 | 0.00 | 82 | 1017.3 |
| 20260831140012 | 84 | 166 | 0.0 | 0.0 | 0.00 | 0.00 | 0.00 | 84 | 1017.1 |
| 20260831134521 | 81 | 73 | 0.0 | 0.0 | 0.00 | 0.00 | 0.00 | 87 | 1016.9 |
| 20260831133030 | 79 | 60 | 0.0 | 0.0 | 0.00 | 0.00 | 0.00 | 89 | 1016.7 |
| 20260831131527 | 77 | 73 | 0.0 | 0.0 | 0.00 | 0.00 | 0.00 | 91 | 1016.6 |
| 20260831130033 | 75 | 70 | 0.0 | 1.0 | 0.00 | 0.00 | 0.00 | 92 | 1016.5 |
| 20260831124519 | 74 | 271 | 0.0 | 0.0 | 0.00 | 0.00 | 0.00 | 92 | 1016.2 |
| 20260831123030 | 73 | 272 | 0.0 | 0.0 | 0.00 | 0.00 | 0.00 | 92 | 1016.0 |
| 20260831121538 | 72 | 272 | 0.0 | 0.0 | 0.00 | 0.00 | 0.00 | 92 | 1015.9 |
| 20260831120033 | 72 | 272 | 0.0 | 0.0 | 0.00 | 0.00 | 0.00 | 92 | 1015.9 |
| 20260831114535 | 72 | 272 | 0.0 | 0.0 | 0.00 | 0.00 | 0.00 | 91 | 1015.8 |
| 20260831113008 | 73 | 272 | 0.0 | 0.0 | 0.00 | 0.00 | 0.00 | 91 | 1015.8 |
| 20260831111507 | 73 | 272 | 0.0 | 0.0 | 0.00 | 0.00 | 0.00 | 91 | 1015.9 |
| 20260831110009 | 73 | 272 | 0.0 | 0.0 | 0.00 | 0.00 | 0.00 | 91 | 1015.8 |
| 20260831104507 | 73 | 272 | 0.0 | 0.0 | 0.00 | 0.00 | 0.00 | 91 | 1015.6 |
| 20260831103007 | 73 | 272 | 0.0 | 0.0 | 0.00 | 0.00 | 0.00 | 91 | 1015.8 |
| 20260831101509 | 74 | 240 | 0.0 | 0.0 | 0.00 | 0.00 | 0.00 | 91 | 1015.8 |
| 20260831100010 | 74 | 240 | 0.0 | 0.0 | 0.00 | 0.00 | 0.00 | 91 | 1015.8 |
| 20260831094509 | 74 | 240 | 0.0 | 0.0 | 0.00 | 0.00 | 0.00 | 91 | 1015.7 |
| 20260831093012 | 74 | 240 | 0.0 | 0.0 | 0.00 | 0.00 | 0.00 | 91 | 1015.8 |
| 20260831091507 | 74 | 240 | 0.0 | 0.0 | 0.00 | 0.00 | 0.00 | 90 | 1015.7 |
| 20260831090010 | 75 | 240 | 0.0 | 0.0 | 0.00 | 0.00 | 0.00 | 90 | 1015.8 |
| 20260831084509 | 75 | 240 | 0.0 | 0.0 | 0.00 | 0.00 | 0.00 | 90 | 1015.8 |
| 20260831083017 | 75 | 240 | 0.0 | 0.0 | 0.00 | 0.00 | 0.00 | 90 | 1015.7 |
| 20260831081510 | 75 | 239 | 0.0 | 0.0 | 0.00 | 0.00 | 0.00 | 90 | 1015.7 |
| 20260831080024 | 75 | 235 | 0.0 | 0.0 | 0.00 | 0.00 | 0.00 | 90 | 1015.7 |
| 20260831074516 | 74 | 210 | 0.0 | 0.0 | 0.00 | 0.00 | 0.00 | 89 | 1015.9 |
| 20260831073018 | 75 | 212 | 0.0 | 0.0 | 0.00 | 0.00 | 0.00 | 89 | 1015.9 |
| 20260831071510 | 75 | 211 | 0.0 | 0.0 | 0.00 | 0.00 | 0.00 | 89 | 1016.0 |
| 20260831070013 | 75 | 211 | 0.0 | 0.0 | 0.00 | 0.00 | 0.00 | 88 | 1016.0 |
| 20260831064513 | 75 | 209 | 0.0 | 1.0 | 0.00 | 0.00 | 0.00 | 88 | 1016.2 |
| 20260831063014 | 75 | 243 | 0.0 | 0.0 | 0.00 | 0.00 | 0.00 | 88 | 1016.3 |
| 20260831061515 | 75 | 243 | 0.0 | 0.0 | 0.00 | 0.00 | 0.00 | 87 | 1016.4 |
| 20260831060018 | 76 | 243 | 0.0 | 0.0 | 0.00 | 0.00 | 0.00 | 86 | 1016.3 |
| 20260831054518 | 76 | 243 | 0.0 | 0.0 | 0.00 | 0.00 | 0.00 | 86 | 1016.4 |
| 20260831053020 | 77 | 243 | 0.0 | 0.0 | 0.00 | 0.00 | 0.00 | 85 | 1016.2 |
| 20260831051520 | 78 | 243 | 0.0 | 0.0 | 0.00 | 0.00 | 0.00 | 84 | 1016.2 |
| 20260831050018 | 78 | 243 | 0.0 | 0.0 | 0.00 | 0.00 | 0.00 | 83 | 1016.1 |
| 20260831044521 | 79 | 219 | 0.0 | 0.0 | 0.00 | 0.00 | 0.00 | 82 | 1016.1 |
| 20260831043020 | 80 | 131 | 0.0 | 2.0 | 0.00 | 0.00 | 0.00 | 80 | 1015.8 |
| 20260831041527 | 81 | 224 | 0.0 | 4.0 | 0.00 | 0.00 | 0.00 | 79 | 1015.8 |
| 20260831040024 | 81 | 123 | 2.0 | 5.0 | 0.00 | 0.00 | 0.00 | 78 | 1015.7 |
| 20260831034523 | 82 | 204 | 2.0 | 6.0 | 0.00 | 0.00 | 0.00 | 76 | 1015.5 |
| 20260831033025 | 82 | 223 | 2.0 | 9.0 | 0.00 | 0.00 | 0.00 | 75 | 1015.4 |
| 20260831031527 | 83 | 176 | 3.0 | 7.0 | 0.00 | 0.00 | 0.00 | 74 | 1015.3 |
| 20260831030025 | 83 | 179 | 3.0 | 6.0 | 0.00 | 0.00 | 0.00 | 73 | 1015.1 |
| 20260831024528 | 84 | 226 | 2.0 | 7.0 | 0.00 | 0.00 | 0.00 | 72 | 1014.9 |
| 20260831023025 | 84 | 110 | 1.0 | 5.0 | 0.00 | 0.00 | 0.00 | 71 | 1014.6 |
| 20260831021528 | 85 | 120 | 1.0 | 5.0 | 0.00 | 0.00 | 0.00 | 70 | 1014.3 |
| 20260831020023 | 85 | 130 | 2.0 | 7.0 | 0.00 | 0.00 | 0.00 | 68 | 1014.0 |
| 20260831014504 | 86 | 151 | 0.0 | 4.0 | 0.00 | 0.00 | 0.00 | 67 | 1013.8 |
| 20260831013009 | 86 | 158 | 1.0 | 6.0 | 0.00 | 0.00 | 0.00 | 66 | 1013.7 |
| 20260831011514 | 87 | 86 | 2.0 | 7.0 | 0.00 | 0.00 | 0.00 | 66 | 1013.7 |
| 20260831010016 | 88 | 114 | 2.0 | 6.0 | 0.00 | 0.00 | 0.00 | 64 | 1013.7 |
| 20260831004526 | 88 | 82 | 0.0 | 7.0 | 0.00 | 0.00 | 0.00 | 63 | 1013.5 |
| 20260831003005 | 89 | 100 | 3.0 | 6.0 | 0.00 | 0.00 | 0.00 | 61 | 1013.4 |
| 20260831001509 | 90 | 134 | 2.0 | 8.0 | 0.00 | 0.00 | 0.00 | 58 | 1013.3 |
| 20260831000032 | 92 | 159 | 6.0 | 11.0 | 0.00 | 0.00 | 0.00 | 54 | 1013.4 |
| 20260830234520 | 93 | 127 | 3.0 | 12.0 | 0.00 | 0.00 | 0.00 | 54 | 1013.3 |
| 20260830233035 | 93 | 75 | 7.0 | 17.0 | 0.00 | 0.00 | 0.00 | 53 | 1013.4 |
| 20260830231508 | 93 | 152 | 4.0 | 12.0 | 0.00 | 0.00 | 0.00 | 54 | 1013.4 |
| 20260830230015 | 94 | 251 | 9.0 | 17.0 | 0.00 | 0.00 | 0.00 | 53 | 1013.3 |
| 20260830224516 | 94 | 120 | 2.0 | 14.0 | 0.00 | 0.00 | 0.00 | 48 | 1013.3 |
| 20260830223024 | 95 | 89 | 5.0 | 8.0 | 0.00 | 0.00 | 0.00 | 47 | 1013.2 |
| 20260830221530 | 97 | 103 | 5.0 | 14.0 | 0.00 | 0.00 | 0.00 | 43 | 1013.3 |
| 20260830220030 | 98 | 141 | 6.0 | 10.0 | 0.00 | 0.00 | 0.00 | 42 | 1013.5 |
| 20260830214511 | 96 | 202 | 3.0 | 7.0 | 0.00 | 0.00 | 0.00 | 44 | 1013.6 |
| 20260830213020 | 96 | 175 | 5.0 | 10.0 | 0.00 | 0.00 | 0.00 | 47 | 1013.7 |
| 20260830211524 | 96 | 118 | 5.0 | 11.0 | 0.00 | 0.00 | 0.00 | 46 | 1013.9 |
| 20260830210031 | 96 | 109 | 6.0 | 11.0 | 0.00 | 0.00 | 0.00 | 48 | 1014.1 |
| 20260830204535 | 96 | 109 | 4.0 | 12.0 | 0.00 | 0.00 | 0.00 | 44 | 1014.2 |
| 20260830203014 | 97 | 98 | 6.0 | 12.0 | 0.00 | 0.00 | 0.00 | 44 | 1014.4 |
| 20260830201520 | 96 | 230 | 5.0 | 12.0 | 0.00 | 0.00 | 0.00 | 46 | 1014.7 |
| 20260830200027 | 96 | 72 | 4.0 | 11.0 | 0.00 | 0.00 | 0.00 | 45 | 1015.0 |
| 20260830194530 | 96 | 110 | 1.0 | 9.0 | 0.00 | 0.00 | 0.00 | 48 | 1015.1 |
| 20260830193030 | 95 | 223 | 0.0 | 11.0 | 0.00 | 0.00 | 0.00 | 49 | 1015.5 |
| 20260830191519 | 96 | 225 | 3.0 | 10.0 | 0.00 | 0.00 | 0.00 | 51 | 1015.8 |
| 20260830190024 | 96 | 221 | 4.0 | 10.0 | 0.00 | 0.00 | 0.00 | 47 | 1016.0 |
| 20260830184527 | 95 | 350 | 0.0 | 7.0 | 0.00 | 0.00 | 0.00 | 51 | 1016.1 |
| 20260830183031 | 94 | 137 | 2.0 | 7.0 | 0.00 | 0.00 | 0.00 | 54 | 1016.5 |
| 20260830181532 | 93 | 112 | 7.0 | 13.0 | 0.00 | 0.00 | 0.00 | 55 | 1016.6 |
| 20260830180016 | 93 | 110 | 2.0 | 7.0 | 0.00 | 0.00 | 0.00 | 56 | 1016.9 |
| 20260830174525 | 93 | 167 | 5.0 | 11.0 | 0.00 | 0.00 | 0.00 | 58 | 1017.1 |
| 20260830173031 | 92 | 5 | 0.0 | 6.0 | 0.00 | 0.00 | 0.00 | 60 | 1017.3 |
| 20260830171532 | 91 | 91 | 3.0 | 8.0 | 0.00 | 0.00 | 0.00 | 60 | 1017.5 |
| 20260830170012 | 90 | 84 | 3.0 | 7.0 | 0.00 | 0.00 | 0.00 | 62 | 1017.7 |
| 20260830164532 | 90 | 120 | 2.0 | 6.0 | 0.00 | 0.00 | 0.00 | 66 | 1018.0 |
| 20260830163027 | 90 | 209 | 3.0 | 10.0 | 0.00 | 0.00 | 0.00 | 64 | 1018.1 |
| 20260830161529 | 89 | 110 | 4.0 | 9.0 | 0.00 | 0.00 | 0.00 | 66 | 1018.1 |
| 20260830160011 | 89 | 129 | 5.0 | 9.0 | 0.00 | 0.00 | 0.00 | 67 | 1018.1 |
| 20260830154511 | 89 | 134 | 1.0 | 5.0 | 0.00 | 0.00 | 0.00 | 68 | 1018.1 |
| 20260830153018 | 88 | 148 | 0.0 | 8.0 | 0.00 | 0.00 | 0.00 | 74 | 1018.1 |